Hayward, WI

4:49 PM CST on November 13, 2019 (GMT -0600)
Sawyer County

Weather History for KHYR - September, 2019

Change the Weather History Date:

Sunday, September 29, 2019

  Actual Average Record
Temperature  
Mean Temperature 50 °F -  
Max Temperature 55 °F 77 °F 78 °F (2000)
Min Temperature 46 °F 37 °F 23 °F (2003)
Degree Days  
Heating Degree Days 14    
Moisture  
Dew Point 45 °F    
Average Humidity 84    
Maximum Humidity 90    
Minimum Humidity 56    
Precipitation  
Precipitation 0.22 in - - ()
Sea Level Pressure  
Sea Level Pressure 30.24 in    
Wind  
Wind Speed 8 mph (East)    
Max Wind Speed 12 mph    
Max Gust Speed 22 mph    
Visibility 6 miles    
Events Rain    
Averages and records for this station are not official NWS values.
T = Trace of Precipitation, MM = Missing Value Source: NWS Daily Summary

Daily Weather History Graph

Daily Weather History Graph

Search for Another Location

Airport or City:

Astronomy

Sep. 29, 2019 Rise Set
Actual Time 7:01 AM CDT 6:50 PM CDT
Civil Twilight 6:31 AM CDT 7:19 PM CDT
Nautical Twilight 5:56 AM CDT 7:54 PM CDT
Astronomical Twilight 5:21 AM CDT 8:29 PM CDT
Moon 7:52 AM CDT (9/29) 7:48 PM CDT (9/29)
Length of Visible Light 12h 48m
Length of Day
11h 48m
New Moon, 1% of the Moon is Illuminated
Sep 29
New Moon
Oct 5
First Quarter
Oct 13
Full
Oct 21
Last Quarter
Oct 27
New

Hourly Weather History & Observations

Time (CDT) Temp. Windchill Dew Point Humidity Pressure Visibility Wind Dir Wind Speed Gust Speed Precip Events Conditions
12:53 AM 48.0 °F - 33.1 °F 56% 30.32 in 10.0 mi ENE 5.8 mph - N/A   Partly Cloudy
1:53 AM 46.9 °F - 37.9 °F 71% 30.32 in 8.0 mi East 6.9 mph - 0.00 in Rain Light Rain
2:53 AM 46.9 °F - 39.9 °F 77% 30.32 in 10.0 mi ENE 6.9 mph - 0.00 in   Overcast
3:53 AM 46.9 °F - 39.9 °F 77% 30.32 in 10.0 mi ENE 5.8 mph - N/A   Mostly Cloudy
4:53 AM 46.9 °F - 41.0 °F 80% 30.31 in 10.0 mi ENE 9.2 mph - N/A   Overcast
5:53 AM 48.0 °F - 41.0 °F 77% 30.32 in 10.0 mi ENE 9.2 mph - N/A   Overcast
6:53 AM 48.0 °F - 42.1 °F 80% 30.34 in 10.0 mi East 9.2 mph - N/A   Overcast
7:47 AM 46.4 °F 42.4 °F 42.8 °F 87% 30.31 in 1.8 mi East 8.1 mph - 0.04 in Rain Rain
7:53 AM 46.9 °F - 43.0 °F 86% 30.33 in 1.5 mi ENE 8.1 mph - 0.07 in Rain Rain
8:08 AM 46.9 °F - 44.1 °F 90% 30.30 in 2.5 mi East 9.2 mph - 0.05 in Rain Rain
8:16 AM 46.9 °F - 44.1 °F 90% 30.30 in 5.0 mi East 10.4 mph 19.6 mph 0.05 in Rain Light Rain
8:36 AM 48.0 °F - 43.0 °F 83% 30.29 in 2.5 mi East 8.1 mph 19.6 mph 0.06 in Rain Light Rain
8:43 AM 48.0 °F - 44.1 °F 86% 30.29 in 4.0 mi East 11.5 mph - 0.06 in Rain Light Rain
8:53 AM 48.0 °F - 44.1 °F 86% 30.31 in 5.0 mi East 11.5 mph 21.9 mph 0.06 in Rain Light Rain
9:53 AM 48.0 °F - 44.1 °F 86% 30.29 in 5.0 mi East 8.1 mph 17.3 mph 0.02 in Rain Light Rain
10:51 AM 48.2 °F - 44.6 °F 87% 30.25 in 2.0 mi East 9.2 mph - 0.00 in Rain Light Rain
10:53 AM 48.0 °F - 44.1 °F 86% 30.27 in 2.0 mi East 11.5 mph - 0.00 in Rain Light Rain
11:37 AM 48.0 °F - 44.1 °F 86% 30.25 in 1.8 mi East 10.4 mph 19.6 mph 0.02 in Rain Light Rain
11:44 AM 48.0 °F - 45.0 °F 89% 30.25 in 2.5 mi ENE 5.8 mph 17.3 mph 0.02 in Rain Light Rain
11:53 AM 48.0 °F - 45.0 °F 89% 30.27 in 1.0 mi East 8.1 mph - 0.03 in Rain Light Rain
11:59 AM 48.9 °F - 45.0 °F 86% 30.24 in 0.8 mi East 8.1 mph - 0.01 in Rain Light Rain
12:21 PM 48.9 °F - 46.0 °F 90% 30.23 in 1.2 mi East 9.2 mph - 0.04 in Rain Light Rain
12:28 PM 48.9 °F - 46.0 °F 90% 30.21 in 3.0 mi ENE 10.4 mph - 0.04 in Rain Light Rain
12:53 PM 50.0 °F - 46.0 °F 86% 30.24 in 7.0 mi East 10.4 mph 18.4 mph 0.04 in Rain Light Rain
1:22 PM 50.0 °F - 46.0 °F 86% 30.21 in 10.0 mi ENE 8.1 mph - 0.00 in   Overcast
1:53 PM 51.1 °F - 46.9 °F 86% 30.23 in 10.0 mi ENE 5.8 mph - 0.00 in   Overcast
2:53 PM 53.1 °F - 48.0 °F 83% 30.19 in 10.0 mi ENE 6.9 mph - N/A   Overcast
3:53 PM 54.0 °F - 48.9 °F 83% 30.19 in 10.0 mi Variable 3.5 mph - N/A   Overcast
4:53 PM 55.0 °F - 46.9 °F 74% 30.17 in 10.0 mi Variable 4.6 mph - N/A   Overcast
5:53 PM 55.0 °F - 48.0 °F 77% 30.17 in 10.0 mi East 4.6 mph - N/A   Overcast
6:53 PM 54.0 °F - 48.0 °F 80% 30.14 in 10.0 mi ESE 6.9 mph - N/A   Overcast
7:53 PM 53.1 °F - 48.9 °F 86% 30.13 in 10.0 mi ESE 6.9 mph - N/A   Overcast
8:53 PM 53.1 °F - 50.0 °F 89% 30.13 in 3.0 mi ESE 11.5 mph 19.6 mph N/A   Overcast
9:23 PM 53.1 °F - 50.0 °F 89% 30.10 in 5.0 mi Variable 5.8 mph - N/A   Overcast
9:53 PM 54.0 °F - 50.0 °F 86% 30.10 in 8.0 mi Variable 5.8 mph - N/A   Overcast
10:53 PM 54.0 °F - 51.1 °F 90% 30.09 in 10.0 mi Calm Calm - N/A   Overcast
11:53 PM 55.0 °F - 52.0 °F 89% 30.05 in 6.0 mi SE 10.4 mph 20.7 mph N/A   Overcast